Wind_Speed
30 26 19 16 16 16 14 11 9 10 10 11 11 11 11 11 9 7 6 5 2 1 4 6 8 10 12 14 16 17 19 19 20 20 21 20 20 18 17 16 15 12 10 8
27 22 18 18 18 15 13 11 11 11 11 12 12 12 11 10 8 7 6 4 2 1 3 5 7 9 11 13 15 17 18 19 20 20 21 21 21 20 19 18 16 14 12 9
23 19 19 17 15 13 11 12 12 12 12 12 12 11 11 9 8 7 6 5 3 2 3 4 6 8 10 12 14 16 17 18 19 20 20 21 21 20 20 18 17 15 14 11
22 20 18 16 14 13 13 13 13 13 13 12 12 10 10 9 8 7 6 6 4 3 3 4 5 7 10 12 13 15 17 18 19 20 20 20 20 20 20 20 18 16 15 13
19 18 16 15 14 14 14 14 14 14 14 12 11 10 9 8 8 8 7 7 5 4 3 3 4 6 8 11 12 14 16 17 18 19 20 20 20 20 20 20 18 17 15 14
18 17 16 15 15 14 14 15 15 14 14 12 11 10 8 9 9 9 8 7 6 4 2 2 3 5 8 10 12 14 15 17 18 19 19 20 20 20 19 19 18 17 16 15
18 17 15 15 15 14 15 15 15 15 13 12 11 10 9 9 9 9 9 8 7 5 3 1 2 5 7 9 11 13 15 16 18 19 19 19 19 19 19 19 18 17 16 15
16 16 15 15 15 15 15 15 15 15 14 12 11 10 9 10 10 10 10 9 7 5 3 1 2 4 6 9 11 13 15 16 17 18 19 19 19 19 18 18 18 17 16 15
15 15 15 14 14 14 14 15 16 16 15 14 12 10 10 12 12 12 11 10 8 6 4 2 1 3 6 8 11 13 15 16 17 18 18 18 18 18 18 18 18 17 16 15
13 14 14 14 14 14 14 15 15 16 16 15 12 10 11 13 13 12 12 10 9 7 5 3 2 3 6 8 10 13 14 16 17 17 17 17 17 18 17 17 17 17 16 16
12 12 13 13 13 13 13 14 15 15 15 15 12 10 12 13 13 12 12 11 9 8 6 4 3 4 6 8 10 12 14 15 17 17 17 16 17 17 17 17 17 17 17 16
10 11 12 13 14 14 15 15 15 15 15 14 13 10 13 14 13 13 12 12 10 9 7 5 4 4 6 8 10 12 13 15 16 16 16 16 16 16 16 16 16 16 16 16
11 12 13 14 15 16 16 16 16 16 15 15 13 10 14 14 14 13 13 12 11 10 8 7 6 5 7 8 10 11 13 14 15 15 16 16 16 16 16 16 16 16 16 16
13 13 14 15 16 18 17 17 17 16 15 14 13 12 14 15 15 15 14 13 12 11 9 8 7 7 7 8 10 11 12 13 14 15 15 16 16 16 16 16 16 16 16 16
16 16 16 17 18 18 17 17 18 16 15 14 12 12 14 16 16 16 15 14 13 11 10 9 8 8 8 9 10 11 12 13 14 15 15 16 16 16 16 16 16 16 16 16
18 18 18 18 18 18 16 16 17 16 15 15 13 12 16 17 17 16 15 15 14 12 11 10 10 9 9 9 10 11 12 13 14 14 15 16 17 17 17 17 17 17 17 17
19 19 20 19 19 19 15 15 17 16 15 15 14 14 16 16 17 17 16 16 15 14 13 12 11 11 10 10 11 11 12 13 14 14 15 16 17 17 18 18 18 19 18 17
19 20 21 20 19 19 15 16 17 16 15 16 15 15 16 17 18 17 17 16 16 15 14 14 13 12 12 11 12 12 12 13 14 14 15 16 17 18 19 19 19 20 19 19
20 21 21 21 20 17 16 18 18 17 14 16 16 16 17 18 18 18 18 18 17 16 16 15 14 14 13 13 13 13 13 14 14 15 16 17 18 19 20 20 20 21 20 19
22 23 23 22 22 19 16 19 19 18 14 17 18 18 18 19 19 19 20 19 18 18 18 17 16 15 15 14 14 14 14 14 15 15 16 17 18 20 21 21 21 21 21 20
25 25 25 24 24 20 18 21 20 19 17 19 20 20 20 20 21 21 21 20 20 20 19 19 18 17 16 16 15 15 15 15 16 16 17 18 19 20 21 22 22 22 21 21
28 28 28 27 26 22 22 22 22 22 22 23 23 23 22 22 23 23 22 22 22 21 21 20 19 19 18 17 17 17 17 17 17 17 18 18 20 21 22 22 22 22 22 21
32 32 32 31 28 27 26 26 26 25 25 26 26 25 25 24 24 24 24 24 23 23 22 22 21 21 20 19 19 19 19 18 18 18 18 19 20 21 22 23 23 23 23 22
36 37 37 35 33 32 31 30 30 29 28 28 29 28 27 27 27 26 26 26 25 25 24 23 23 22 22 21 21 21 20 20 20 19 20 20 21 22 23 24 24 24 24 23
39 40 41 41 38 37 36 36 35 34 32 32 32 31 30 29 29 29 28 27 27 26 26 25 25 25 24 23 23 23 22 22 21 21 21 21 22 23 24 25 25 25 25 25
41 43 45 45 43 44 42 40 40 39 37 36 36 35 33 32 31 31 31 30 29 29 28 27 27 26 26 25 25 24 24 23 23 23 23 23 24 25 26 26 27 26 26 26
Wind_Direction
213 217 218 220 225 234 246 256 263 268 269 274 282 284 283 279 275 271 269 266 274 12 47 48 41 37 33 29 26 24 22 20 19 18 17 15 13 12 9 7 5 2 356 340
210 211 210 216 223 234 246 258 264 266 270 273 276 278 276 271 266 257 249 244 229 130 84 62 48 39 33 29 25 23 22 20 18 18 17 17 16 15 14 13 11 8 6 2
208 206 211 217 225 235 245 254 259 266 273 276 275 271 268 261 255 243 234 229 213 163 105 72 52 40 32 28 25 22 21 20 18 18 18 17 16 15 15 14 13 12 11 9
203 204 209 216 223 233 241 250 259 267 273 277 276 264 262 255 242 230 227 221 207 176 126 81 53 38 30 26 23 22 21 19 17 16 16 15 15 14 15 15 15 14 13 12
202 204 208 213 222 231 241 250 261 269 274 276 274 266 257 249 231 221 221 219 208 186 144 89 51 34 27 24 21 20 18 16 14 13 13 13 13 13 14 15 16 16 15 13
200 204 208 214 222 232 241 251 263 269 274 276 271 268 257 247 230 220 220 218 210 194 164 99 48 31 24 20 18 16 15 13 12 11 10 11 11 11 12 13 13 13 14 13
199 203 208 215 225 234 244 255 265 270 272 274 269 267 256 248 234 224 222 219 212 199 183 131 43 27 20 17 15 12 10 9 8 8 8 8 9 10 10 11 12 12 13 14
202 205 210 217 227 240 251 261 269 273 272 269 266 264 252 247 235 226 222 221 215 205 194 171 32 19 14 12 11 8 6 5 5 5 5 6 8 9 10 11 12 12 12 12
201 208 216 225 237 248 256 265 272 274 273 271 265 258 247 242 235 228 223 221 217 211 208 213 340 1 5 6 5 4 2 2 2 2 3 4 6 8 9 10 10 11 11 11
204 211 221 232 244 254 263 268 272 274 275 274 266 253 242 235 233 228 224 222 221 219 221 231 282 340 354 357 358 358 359 359 359 359 0 3 5 6 7 7 8 9 9 9
213 223 230 240 250 259 266 270 272 273 275 276 265 247 238 232 231 230 227 226 225 225 228 238 269 316 339 347 351 353 354 355 356 358 0 2 3 4 5 5 6 7 8 8
224 232 240 249 254 260 267 272 273 274 274 272 265 245 238 232 230 231 229 227 228 228 232 242 266 301 326 338 345 348 350 352 355 358 359 0 0 1 2 4 5 5 6 6
239 245 249 252 256 261 267 271 273 274 273 271 264 248 237 233 230 231 229 226 228 230 235 246 265 292 315 329 338 343 347 350 354 356 358 359 359 357 358 360 2 2 2 2
254 258 260 261 260 261 264 266 269 272 272 269 262 250 238 232 230 230 229 227 228 233 239 249 264 285 305 320 330 338 343 346 350 352 354 356 356 356 355 355 357 357 356 355
266 267 266 267 265 264 263 264 266 267 268 264 256 249 238 233 232 231 230 230 232 235 241 250 263 279 296 310 321 331 338 342 345 348 351 353 354 354 355 354 352 352 351 349
272 272 270 269 269 267 264 263 264 264 263 260 252 242 238 234 233 233 233 233 235 237 243 251 261 274 288 301 312 323 331 337 342 345 348 350 351 351 351 351 349 346 345 344
274 274 273 271 269 270 267 264 264 265 260 258 251 240 238 236 235 234 234 235 237 241 245 251 260 270 282 293 304 314 324 332 337 341 345 348 350 350 349 347 346 344 340 338
274 274 274 272 269 268 268 265 266 265 261 258 250 242 241 239 237 237 237 238 241 245 249 254 260 268 277 287 296 306 315 323 330 335 340 344 346 347 346 345 344 342 340 336
273 273 273 273 271 270 268 266 264 263 258 257 251 245 244 243 241 241 241 243 246 250 253 256 261 267 274 282 290 298 307 315 322 328 334 338 340 341 342 342 341 340 339 337
271 272 272 272 271 270 267 264 262 261 256 253 251 247 246 246 245 245 245 247 250 253 255 257 260 265 272 278 284 290 298 306 314 321 327 331 334 337 338 338 338 338 337 336
268 268 269 269 269 269 266 263 262 259 251 248 249 249 248 249 248 248 249 251 252 254 255 257 260 265 270 274 279 284 291 299 307 313 319 324 329 332 334 335 336 336 335 333
266 266 266 266 266 267 262 261 259 256 252 250 249 248 249 249 250 251 252 253 253 254 255 257 260 264 267 271 275 279 285 292 299 306 312 318 324 329 331 332 332 333 332 331
263 263 263 262 262 261 259 258 257 254 251 250 250 248 249 249 251 252 253 253 253 254 255 257 259 263 265 268 271 275 280 286 292 299 306 313 319 324 327 328 329 329 328 327
261 260 260 259 257 256 255 255 255 253 250 249 250 249 249 249 250 251 252 253 253 254 255 256 259 261 263 265 268 271 276 281 287 294 301 308 314 319 322 324 325 326 325 324
260 259 259 258 256 254 252 252 252 251 250 249 249 249 249 249 250 251 251 252 253 254 254 255 257 259 261 263 266 269 273 278 284 290 296 302 308 313 316 319 321 323 323 322
262 259 258 256 254 253 251 251 251 250 249 248 248 248 248 248 248 249 250 251 252 253 253 254 256 258 259 262 265 268 272 276 281 286 292 297 302 307 311 314 316 318 319 319
Height
5821 5828 5835 5840 5843 5845 5847 5848 5849 5850 5850 5850 5849 5848 5848 5847 5846 5845 5844 5844 5843 5841 5840 5838 5836 5834 5832 5829 5826 5823 5820 5816 5812 5808 5805 5800 5796 5792 5789 5785 5782 5780 5778 5776
5821 5828 5834 5836 5840 5842 5844 5846 5847 5847 5847 5847 5847 5846 5845 5845 5844 5843 5843 5842 5842 5840 5839 5838 5836 5834 5832 5829 5827 5824 5820 5817 5813 5810 5806 5802 5798 5794 5790 5786 5783 5780 5778 5776
5821 5828 5831 5835 5838 5841 5843 5844 5844 5845 5844 5844 5844 5844 5843 5842 5842 5841 5841 5841 5841 5840 5839 5837 5836 5834 5832 5830 5827 5824 5821 5818 5814 5811 5807 5803 5799 5795 5791 5788 5784 5781 5778 5776
5820 5825 5830 5833 5837 5839 5840 5841 5842 5842 5842 5841 5842 5841 5841 5840 5840 5840 5840 5840 5839 5839 5838 5836 5835 5834 5832 5830 5827 5825 5822 5818 5815 5812 5808 5804 5801 5797 5793 5789 5785 5782 5779 5777
5821 5825 5828 5832 5835 5836 5838 5839 5839 5839 5839 5839 5839 5838 5839 5838 5838 5838 5838 5839 5838 5838 5837 5836 5834 5833 5831 5830 5827 5825 5822 5819 5816 5813 5809 5805 5802 5798 5794 5790 5787 5783 5780 5778
5820 5824 5827 5830 5832 5834 5836 5837 5837 5837 5836 5837 5836 5836 5836 5836 5836 5836 5837 5837 5837 5836 5836 5835 5834 5833 5831 5829 5827 5825 5822 5819 5816 5813 5810 5806 5803 5799 5795 5791 5788 5785 5782 5779
5820 5823 5826 5829 5831 5833 5834 5835 5835 5834 5834 5834 5834 5833 5835 5834 5834 5835 5835 5836 5836 5835 5835 5834 5833 5832 5831 5829 5827 5825 5822 5820 5817 5814 5810 5807 5803 5799 5796 5792 5789 5785 5782 5780
5819 5823 5825 5827 5829 5831 5831 5832 5833 5832 5832 5831 5831 5831 5833 5832 5832 5833 5834 5834 5834 5834 5834 5833 5832 5831 5830 5829 5827 5824 5822 5820 5817 5814 5810 5807 5803 5800 5796 5793 5790 5786 5783 5780
5819 5822 5824 5826 5827 5829 5829 5829 5830 5829 5829 5828 5828 5829 5830 5830 5831 5831 5832 5832 5833 5833 5832 5832 5831 5831 5829 5828 5826 5824 5822 5819 5817 5814 5810 5807 5804 5800 5797 5794 5790 5787 5784 5781
5818 5821 5823 5824 5826 5826 5827 5827 5827 5826 5825 5825 5826 5826 5828 5827 5828 5829 5830 5830 5831 5831 5831 5831 5830 5829 5828 5827 5825 5823 5821 5819 5816 5813 5810 5807 5804 5800 5797 5794 5791 5787 5784 5781
5818 5820 5822 5822 5823 5824 5825 5825 5824 5823 5823 5823 5823 5826 5825 5825 5826 5827 5827 5828 5829 5829 5829 5829 5829 5828 5827 5826 5824 5823 5820 5818 5815 5812 5809 5806 5803 5800 5797 5794 5791 5788 5784 5781
5817 5819 5819 5820 5821 5821 5821 5821 5821 5821 5820 5820 5820 5825 5822 5822 5823 5824 5825 5825 5826 5827 5827 5827 5827 5827 5826 5825 5823 5821 5819 5817 5815 5812 5809 5806 5803 5800 5797 5794 5791 5788 5785 5781
5816 5817 5817 5818 5820 5819 5818 5818 5817 5817 5817 5817 5817 5822 5819 5819 5820 5821 5822 5823 5824 5824 5825 5825 5825 5825 5824 5823 5822 5820 5818 5816 5813 5811 5808 5805 5802 5799 5796 5793 5790 5787 5784 5781
5814 5814 5815 5815 5815 5814 5814 5814 5814 5813 5813 5814 5815 5816 5816 5816 5817 5818 5819 5820 5821 5822 5822 5823 5823 5823 5822 5821 5820 5819 5817 5815 5812 5810 5807 5804 5801 5799 5796 5793 5790 5787 5784 5781
5810 5810 5810 5810 5810 5810 5810 5810 5810 5810 5810 5810 5811 5812 5813 5812 5813 5814 5816 5817 5818 5819 5820 5820 5820 5820 5820 5819 5818 5817 5815 5813 5811 5808 5806 5803 5800 5797 5794 5791 5788 5785 5783 5780
5806 5806 5806 5806 5806 5805 5806 5806 5806 5806 5806 5806 5807 5808 5808 5809 5810 5811 5812 5814 5815 5816 5816 5817 5817 5817 5817 5816 5815 5814 5813 5811 5809 5806 5804 5801 5798 5796 5793 5790 5787 5784 5781 5778
5802 5802 5802 5802 5801 5801 5802 5803 5801 5801 5802 5803 5803 5805 5805 5806 5807 5808 5809 5810 5811 5812 5813 5814 5814 5814 5814 5813 5812 5811 5810 5808 5806 5804 5802 5799 5797 5794 5791 5788 5785 5782 5779 5776
5797 5797 5796 5797 5797 5797 5801 5798 5798 5797 5798 5799 5799 5800 5801 5802 5803 5804 5805 5806 5807 5809 5809 5810 5810 5810 5810 5810 5809 5808 5807 5805 5804 5802 5799 5797 5794 5791 5789 5786 5782 5779 5776 5773
5792 5792 5792 5792 5791 5793 5795 5793 5793 5793 5795 5795 5795 5797 5797 5798 5799 5800 5801 5802 5803 5804 5805 5805 5806 5806 5806 5805 5805 5804 5803 5802 5801 5799 5796 5794 5792 5789 5786 5783 5780 5776 5773 5770
5787 5787 5787 5786 5786 5788 5791 5788 5787 5789 5791 5790 5790 5792 5792 5794 5795 5796 5797 5798 5799 5799 5800 5801 5801 5801 5801 5801 5801 5800 5800 5798 5797 5795 5793 5791 5788 5786 5783 5780 5776 5773 5770 5766
5781 5780 5780 5780 5780 5782 5784 5782 5783 5785 5786 5785 5785 5786 5787 5788 5790 5791 5792 5793 5793 5794 5795 5795 5796 5796 5796 5796 5796 5796 5795 5794 5793 5791 5789 5787 5785 5782 5779 5776 5773 5770 5766 5763
5773 5773 5773 5773 5774 5778 5777 5776 5777 5777 5778 5778 5778 5779 5781 5782 5783 5784 5786 5787 5788 5788 5789 5790 5790 5790 5791 5791 5791 5791 5790 5789 5788 5787 5785 5783 5781 5778 5775 5772 5769 5766 5763 5759
5764 5765 5764 5766 5769 5769 5768 5768 5768 5769 5771 5771 5772 5773 5774 5775 5776 5777 5779 5780 5781 5782 5783 5783 5784 5784 5785 5785 5785 5785 5785 5784 5783 5782 5780 5778 5776 5774 5771 5768 5765 5761 5758 5755
5754 5754 5754 5755 5758 5759 5759 5759 5759 5761 5762 5763 5764 5765 5767 5768 5769 5770 5771 5773 5774 5775 5775 5776 5777 5778 5778 5779 5779 5779 5779 5778 5777 5776 5775 5773 5771 5768 5766 5763 5760 5757 5754 5751
5743 5743 5742 5743 5746 5747 5748 5749 5749 5751 5752 5753 5755 5756 5758 5759 5761 5762 5763 5764 5766 5767 5768 5769 5770 5770 5771 5772 5772 5772 5772 5771 5771 5770 5768 5767 5765 5763 5760 5758 5755 5752 5749 5745
5730 5729 5728 5730 5733 5732 5736 5738 5738 5740 5741 5743 5744 5746 5748 5750 5752 5753 5754 5755 5757 5758 5760 5761 5762 5763 5763 5764 5764 5764 5764 5764 5764 5763 5762 5760 5759 5757 5754 5752 5749 5746 5743 5740